SJ-9A                   
1 38860U 12056A   19265.10216119  .00000019  00000-0  92350-5 0  9997
2 38860  97.7183 319.1767 0030187  35.0557 325.2643 14.79488348374612
SJ-9B                   
1 38861U 12056B   19265.15397110  .00000095  00000-0  18621-4 0  9996
2 38861  97.7357 325.0371 0019313  35.4690 324.7810 14.81428470374830
CZ-2C DEB               
1 38863U 12056D   19263.89311061  .00000238  00000-0  33303-4 0  9991
2 38863  97.8063 343.6265 0014984   4.9242 355.2118 14.86147781375455